Regional Weather Roundup
Issued by NWS

Home | Current Version | Previous Version | Text Only | Print | Product List | Glossary On
Versions: 1 2 3 4 5 6 7 8 9 10 11 12 13 14 15 16 17 18 19 20 21 22 23 24 25 26 27 28 29 30 31 32 33 34 35 36 37 38 39 40 41 42 43 44 45 46 47 48 49 50
000
ASUS44 KFWD 251210
RWRTX
NORTH TEXAS HOURLY WEATHER ROUNDUP
NATIONAL WEATHER SERVICE FORT WORTH TX
700 AM CDT MON JUL 25 2016

NOTE: "FAIR" INDICATES FEW OR NO CLOUDS BELOW 12,000 FEET WITH NO
SIGNIFICANT WEATHER AND/OR OBSTRUCTIONS TO VISIBILITY.

TXZ118-119-251300-
DALLAS/FORT WORTH METROPLEX

CITY           SKY/WX    TMP DP  RH WIND       PRES   REMARKS
DFW AIRPORT    MOCLDY    80  72  76 SE5       29.97R
6HR MIN TEMP:  80; 6HR MAX TEMP:  86;

DALLAS LOVE    MOCLDY    82  73  74 S6        29.97R
6HR MIN TEMP:  82; 6HR MAX TEMP:  87;

FTW MEACHAM    CLEAR     82  72  71 SE6       29.97R
6HR MIN TEMP:  81; 6HR MAX TEMP:  89;

DAL-EXECUTIVE  CLOUDY    79  72  79 E3        29.98R
6HR MIN TEMP:  77; 6HR MAX TEMP:  84;

FTW-ALLIANCE   MOCLDY    78  71  79 CALM      29.97R
6HR MIN TEMP:  77; 6HR MAX TEMP:  84;

FTW-NAS-JRB    PTCLDY    82  71  69 S6        29.98R
6HR MIN TEMP:  82; 6HR MAX TEMP:  88;

FTW-SPINKS     CLEAR     77  72  83 CALM      29.99R
ARLINGTON      CLEAR     79  72  79 S3        29.98R
6HR MIN TEMP:  77; 6HR MAX TEMP:  86;

GRAND PRAIRIE  CLEAR     81  72  74 CALM      29.99R
ADDISON        CLEAR     81  72  74 S7        29.97F
MESQUITE       CLEAR     75  75 100 CALM      29.98R
LANCASTER      CLOUDY    78  73  84 CALM      29.99R
6HR MIN TEMP:  77; 6HR MAX TEMP:  84;

$$

TXZ091>094-102>105-117-120-121-131>134-251300-
NORTH CENTRAL TEXAS

CITY           SKY/WX    TMP DP  RH WIND       PRES   REMARKS
SHRMAN/DENISON CLOUDY    78  73  84 E5        30.00S
6HR MIN TEMP:  77; 6HR MAX TEMP:  86;

GAINESVILLE    CLEAR     75  71  87 CALM      30.01R
6HR MIN TEMP:  75; 6HR MAX TEMP:  82;

BOWIE          CLEAR     75  71  88 CALM      30.00R
6HR MIN TEMP:  74; 6HR MAX TEMP:  80;

BRIDGEPORT     CLEAR     73  73 100 CALM      30.00R
6HR MIN TEMP:  73; 6HR MAX TEMP:  84;

DECATUR        CLEAR     75  70  83 E3        30.00R
6HR MIN TEMP:  75; 6HR MAX TEMP:  84;

DENTON         CLEAR     78  73  84 SE5       29.98R
6HR MIN TEMP:  78; 6HR MAX TEMP:  85;

MCKINNEY       CLOUDY    78  74  87 CALM      29.98R
6HR MIN TEMP:  77; 6HR MAX TEMP:  84;

GREENVILLE     CLOUDY    77  70  78 CALM      29.99R
ROCKWALL       LGT RAIN  79  74  86 CALM      29.97R
6HR MIN TEMP:  78; 6HR MAX TEMP:  82;

TERRELL        LGT RAIN  79  73  82 CALM      29.98R
6HR MIN TEMP:  78; 6HR MAX TEMP:  81; 6HR PCP: TRACE;

WAXAHACHIE     CLEAR     76  74  93 S3        29.99R
6HR MIN TEMP:  76; 6HR MAX TEMP:  83;

CLEBURNE       CLEAR     77  75  94 CALM      30.00R
GRANBURY       CLEAR     81  71  71 E5        29.99R
6HR MIN TEMP:  81; 6HR MAX TEMP:  87;

$$

TXZ083>090-098>101-113>116-127>130-139>142-154-155-251300-
WESTERN NORTH TEXAS

CITY           SKY/WX    TMP DP  RH WIND       PRES   REMARKS
WICHITA FALLS  PTCLDY    75  69  81 CALM      29.98R
6HR MIN TEMP:  75; 6HR MAX TEMP:  80;

WF-KICKAPOO    CLEAR     78  70  75 E9        29.99S
6HR MIN TEMP:  78; 6HR MAX TEMP:  83;

VERNON         PTCLDY    77  66  67 CALM      30.01R
6HR MIN TEMP:  77; 6HR MAX TEMP: 102;

ABILENE        CLEAR     77  66  68 SE6       30.02R
6HR MIN TEMP:  76; 6HR MAX TEMP:  83;

ABILENE-DYESS  CLEAR     77  65  67 SE2       30.01R
6HR MIN TEMP:  76; 6HR MAX TEMP:  83;

CISCO          CLEAR     73  66  78 S6        30.03R
BRECKENRIDGE   PTCLDY    77  67  71 S3        29.99R
6HR MIN TEMP:  77; 6HR MAX TEMP:  85;

GRAHAM         CLEAR     75  71  85 CALM      29.98R
6HR MIN TEMP:  75; 6HR MAX TEMP:  85;

MINERAL WELLS  CLEAR     76  71  85 SE3       29.97R
6HR MIN TEMP:  76; 6HR MAX TEMP:  82;

STEPHENVILLE   CLEAR     74  68  79 CALM      30.03R
6HR MIN TEMP:  74; 6HR MAX TEMP:  83;

COMANCHE       CLEAR     75  69  80 CALM      30.01R
6HR MIN TEMP:  73; 6HR MAX TEMP:  81;

BROWNWOOD      CLEAR     73  66  78 CALM      30.01S
COLEMAN        CLEAR     74  65  71 CALM      30.03R
6HR MIN TEMP:  74; 6HR MAX TEMP:  82;

$$

TXZ143>147-156>162-174-175-251300-
CENTRAL TEXAS

CITY           SKY/WX    TMP DP  RH WIND       PRES   REMARKS
WACO           PTCLDY    80  72  76 S5        29.98R
6HR MIN TEMP:  79; 6HR MAX TEMP:  86;

WACO-MCGREGOR  PTCLDY    78  73  84 CALM      29.99R
6HR MIN TEMP:  78; 6HR MAX TEMP:  85;

HILLSBORO      CLEAR     76  73  88 SE3       29.98S
6HR MIN TEMP:  76; 6HR MAX TEMP:  83;

CORSICANA      CLOUDY    79  74  84 CALM      29.98R
6HR MIN TEMP:  79; 6HR MAX TEMP:  84;

MEXIA          MOCLDY    76  75  96 S5        29.97R
6HR MIN TEMP:  76; 6HR MAX TEMP:  82;

HEARNE         CLOUDY    78  75  90 CALM      29.98R
6HR MIN TEMP:  77; 6HR MAX TEMP:  83;

CAMERON        CLOUDY    78  75  91 CALM      29.98R
6HR MIN TEMP:  78; 6HR MAX TEMP:  84;

TEMPLE         PTCLDY    78  72  81 S3        29.99R
6HR MIN TEMP:  78; 6HR MAX TEMP:  85;

KILLEEN        CLOUDY    78  70  78 CALM      29.99R
6HR MIN TEMP:  77; 6HR MAX TEMP:  84;

KILLEEN-SKYLRK CLOUDY    78  71  79 CALM      29.99R
6HR MIN TEMP:  78; 6HR MAX TEMP:  85;

FORT HOOD      CLOUDY    77  70  79 CALM      29.97R
6HR MIN TEMP:  77; 6HR MAX TEMP:  84;

GATESVILLE     PTCLDY    79  72  78 CALM      30.02R
HAMILTON       CLEAR     76  69  80 CALM      30.02R
6HR MIN TEMP:  76; 6HR MAX TEMP:  83;

LAMPASAS       CLEAR     76  71  86 CALM      30.00R
6HR MIN TEMP:  76; 6HR MAX TEMP:  83;

$$

TXZ095>097-106>112-122>126-135>138-148>153-164>167-251300-
EAST TEXAS

CITY           SKY/WX    TMP DP  RH WIND       PRES   REMARKS
PARIS          CLOUDY    75  64  69 SE7       30.01R
6HR MIN TEMP:  75; 6HR MAX TEMP:  79;

SULPHUR SPRNGS CLOUDY    76  72  88 E5        30.02R
6HR MIN TEMP:  75; 6HR MAX TEMP:  81;

MOUNT PLEASANT PTCLDY    75  74  99 E3        30.02R
6HR MIN TEMP:  75; 6HR MAX TEMP:  76;

GILMER         CLOUDY    74  72  95 CALM      30.00S
6HR MIN TEMP:  73; 6HR MAX TEMP:  75;

MINEOLA        MOCLDY    75  72  88 CALM      30.00R
TYLER          CLOUDY    77  71  82 SE5       29.99R
6HR MIN TEMP:  76; 6HR MAX TEMP:  78;

LONGVIEW       CLOUDY    75  74  96 E3        29.99R
6HR MIN TEMP:  74; 6HR MAX TEMP:  76;

MARSHALL       PTCLDY    73  70  93 CALM      30.02R
6HR MIN TEMP:  73; 6HR MAX TEMP:  73;

ATHENS         CLOUDY    73  73 100 CALM      29.97R
PALESTINE      CLOUDY    75  73  92 CALM      29.99R
JACKSONVILLE   CLOUDY    73  72  96 CALM      30.02R
HENDERSON      CLOUDY    73  73 100 CALM      30.01R
6HR MIN TEMP:  72; 6HR MAX TEMP:  75;

CENTER         CLOUDY    76  75  95 CALM      30.00R FOG
6HR MIN TEMP:  75; 6HR MAX TEMP:  76;

NACOGDOCHES    CLOUDY   N/A N/A N/A CALM      29.97S
LUFKIN         CLOUDY    75  74  96 N3        29.98R
6HR MIN TEMP:  74; 6HR MAX TEMP:  76;

$$

SUPPLEMENTAL OBSERVATIONS (CENTRAL)

CITY           SKY/WX    TMP DP  RH WIND       PRES   REMARKS
CADDO GRASSLND   N/A     77  72  83 E1          N/A
PAT MAYSE LAKE   N/A     75  72  88 E2          N/A
GREENVILLE       N/A     77  70  78 E3          N/A
CEDAR HILL       N/A     79  73  83 S1          N/A
MCGREGOR         N/A     77  70  78 W1          N/A
TEMPLE           N/A     79  73  83 S2          N/A
$$

SUPPLEMENTAL OBSERVATIONS (WEST)

CITY           SKY/WX    TMP DP C1F1C2F2C3F3C4F4C5F5C6F6C7F7C8F8C9!



USA.gov is the U.S. government's official web portal to all federal, state and local government web resources and services.